星链-35162(STARLINK-35162)
导读
STARLINK-35162是美国太空探索技术公司 SpaceX 星链星座的成员,于2025年9月13日发射入轨,归属星链互联网星座组网项目。该卫星旨在为全球提供低延迟、高速率的宽带互联网服务,尤其覆盖偏远地区与网络基础设施薄弱区域,依托低轨部署优势优化全球通信覆盖能力,推进星链星座全球通信网络的构建。
Basic Information
目录编号:
65613
目录名称:
STARLINK-35162
国际标识:
2025-207X
轨道中心:
EARTH
卫星名称:
星链-35162
卫星全名:
星链-35162(STARLINK-35162)
卫星状态:
在轨 (已飞行356 天)
发射日期:
2025-09-13 UTC
国别 :
美国
(US)
星等 :
--
Orbit Information
| 数据来源 | 国际轨道数据 |
| 星历时间: | 2026-09-04T11:11:23+0800 14小时前 查看轨道信息 |
| 半长轴: | 6927.618km |
| 偏心率: | 0.0001629 |
| 轨道倾角: | 97.286° |
| 近地点辐角 | 116.147° |
| 升交点赤经 | 310.399° |
| 平近点角 | 243.992° |
| 近地点: | 548.352km |
| 远地点: | 550.61km |
| 周期: | 95.639分钟 |
| 每日圈数: | 15.056599 |
Detailed Information
固有亮度:
5
最大亮度:
2.5
卫星平台:
Starlink V1.0
覆盖范围:
全球
运营商:
太空探索技术公司
运营商所在国:
美国
制造商(研发单位):
太空探索技术公司
制造商所在国:
美国
使用方式:
暂无
Satellite Introduction
Starlink 计划是 SpaceX 推出的全球卫星互联网项目,通过发射低轨道卫星,为全球尤其是偏远地区提供高速、低延迟的互联网服务。自 2019 年起,Starlink 已部署数千颗卫星,旨在缩小全球数字鸿沟,推动互联网普及。该项目还为军事、航空等行业提供通信支持,带来广泛经济效益。
2D Orbit Map
3D Orbit Map
Orbit Altitude Analysis Chart
Orbit Inclination Analysis Chart
Orbit Comprehensive Analysis Chart
View Comprehensive ChartConjunction Data List
| Event ID | Objects | TCA | Miss Dist (km) | Collision Risk Probability | Collision Risk Index (CRI) | Action |
|---|---|---|---|---|---|---|
| CDM_260907-030706-405506-561321 |
QPS-SAR-10 WADATSUMI-I
(64055)
STARLINK-35162
(65613) | 2026-09-07T 03:07:57+0000 |
1.448 km
极远距离 | 6.940811E-6 低风险 | 0.52 | |
| CDM_260904-185506-561306-776521 |
STARLINK-35162
(65613)
KUIPER-00160
(67765) | 2026-09-04T 18:55:11+0000 |
2.788 km
极远距离 | 1.378125E-6 低风险 | 0.38 | |
| CDM_260903-042903-278606-561326 |
IMS-1
(32786)
STARLINK-35162
(65613) | 2026-09-03T 04:29:15+0000 |
2.452 km
极远距离 | 1.363349E-6 低风险 | 0.38 |

